K4HG-2 Cudjoe Key FL US current weather conditions

sailwx.info

Wind from 061

Air temperature 21.1° C
Dewpoint 13.0° C

Last reported at 2019-Nov-21 05:03 UTC.
Time now 2019-Nov-21 05:53 UTC

Location: N 24°40' W 081°29'.
View on Google Maps.

See reports from other nearby stations

  
Tides and Currents Weather Stations Pressure Air Temp Water Temp Dewpoint Dewpoint Depression Visibility Wind Speed Wind Dir Waves Ship Positions
date/time (UTC)wind fromknots sea level pressurealtimeterstation pressurevisibilityair tempwater tempwave heightnotes
2019-Nov-21 05:03 061 21.1
2019-Nov-21 04:59 061 21.1
2019-Nov-21 04:54 061 21.1
2019-Nov-21 04:49 061 21.1
2019-Nov-21 04:44 061 21.1
2019-Nov-21 04:40 061 21.1
2019-Nov-21 04:33 061 21.1
2019-Nov-21 04:29 061 21.1
2019-Nov-21 04:24 061 21.1
2019-Nov-21 04:19 061 21.1
2019-Nov-21 04:13 061 21.1
2019-Nov-21 04:09 061 21.1
2019-Nov-21 04:04 061 21.1
2019-Nov-21 03:59 061 21.1
2019-Nov-21 03:54 061 21.1
2019-Nov-21 03:49 061 21.1
2019-Nov-21 03:44 061 21.1
2019-Nov-21 03:37 061 21.1
2019-Nov-21 03:34 061 21.1
2019-Nov-21 03:29 061 21.1
2019-Nov-21 03:24 061 21.1
2019-Nov-21 03:19 061 21.1
2019-Nov-21 03:13 061 21.1
2019-Nov-21 03:10 061 21.1
2019-Nov-21 03:04 358 2 gusting 6 21.1
2019-Nov-21 02:59 047 21.1
2019-Nov-21 02:54 053 21.1
2019-Nov-21 02:48 025 21.1
2019-Nov-21 02:44 004 2 gusting 6 21.1
2019-Nov-21 02:39 043 1 gusting 5 21.1
2019-Nov-21 02:33 053 21.1
2019-Nov-21 02:29 053 21.1
2019-Nov-21 02:23 053 21.1
2019-Nov-21 02:17 053 21.1
2019-Nov-21 02:14 053 21.1
2019-Nov-21 02:09 053 21.1
2019-Nov-21 02:02 053 21.1
2019-Nov-21 01:59 053 21.1
2019-Nov-21 01:54 053 21.1
2019-Nov-21 01:49 053 21.1
2019-Nov-21 01:45 053 21.1
2019-Nov-21 01:39 053 21.1
2019-Nov-21 01:34 053 21.1
2019-Nov-21 01:29 053 21.1
2019-Nov-21 01:22 053 21.1
2019-Nov-21 01:19 053 21.1
2019-Nov-21 01:14 074 0 gusting 2 21.1
2019-Nov-21 01:09 019 21.1
2019-Nov-21 01:00 019 21.7
2019-Nov-21 00:54 019 21.1
2019-Nov-21 00:49 019 21.7
2019-Nov-21 00:44 019 21.7
2019-Nov-21 00:40 019 21.7
2019-Nov-21 00:33 019 21.1
2019-Nov-21 00:30 019 21.7
2019-Nov-21 00:24 019 21.7
2019-Nov-21 00:19 019 21.7
2019-Nov-21 00:15 019 21.7
2019-Nov-21 00:09 019 21.7
2019-Nov-21 00:04 019 21.7
2019-Nov-20 23:59 019 21.7
2019-Nov-20 23:55 019 21.7
2019-Nov-20 23:49 019 21.7
2019-Nov-20 23:44 019 21.7
2019-Nov-20 23:34 019 21.7
2019-Nov-20 23:29 019 21.7
2019-Nov-20 23:24 019 21.7
2019-Nov-20 23:19 019 21.7
2019-Nov-20 23:14 019 22.2
2019-Nov-20 23:09 019 21.7
2019-Nov-20 23:03 019 22.2
2019-Nov-20 22:57 019 22.2
2019-Nov-20 22:53 019 22.2
2019-Nov-20 22:46 019 22.2
2019-Nov-20 22:44 019 22.2
2019-Nov-20 22:37 019 22.8
2019-Nov-20 22:32 047 2 22.8
2019-Nov-20 22:30 098 22.8
2019-Nov-20 22:23 098 22.8
2019-Nov-20 22:20 098 22.8
2019-Nov-20 22:15 098 22.8
2019-Nov-20 22:09 018 0 gusting 3 22.8
2019-Nov-20 22:04 056 2 gusting 3 22.8
2019-Nov-20 22:00 025 22.8
2019-Nov-20 21:53 064 22.8
2019-Nov-20 21:49 064 22.8
2019-Nov-20 21:44 064 22.8
2019-Nov-20 21:37 064 22.8
2019-Nov-20 21:34 064 22.8
2019-Nov-20 21:28 039 23.3
2019-Nov-20 21:24 070 0 gusting 4 23.3
2019-Nov-20 21:17 035 23.3
2019-Nov-20 21:13 002 23.3
2019-Nov-20 21:10 002 23.3
2019-Nov-20 21:04 099 23.3
2019-Nov-20 21:00 23.3
2019-Nov-20 20:54 050 23.3
2019-Nov-20 20:48 064 23.3
2019-Nov-20 20:45 001 23.3
2019-Nov-20 20:39 025 23.3
2019-Nov-20 20:34 015 2 gusting 6 23.3
2019-Nov-20 20:30 049 23.3
2019-Nov-20 20:25 358 2 gusting 3 23.3
2019-Nov-20 20:19 023 0 gusting 5 23.3
2019-Nov-20 20:13 052 1 gusting 6 23.3
2019-Nov-20 20:09 045 23.3
2019-Nov-20 20:04 043 23.9
2019-Nov-20 20:00 043 23.3
2019-Nov-20 19:51 061 23.3
2019-Nov-20 19:49 122 23.3
2019-Nov-20 19:44 122 23.3
2019-Nov-20 19:38 095 2 23.3
2019-Nov-20 19:34 057 23.3
2019-Nov-20 19:30 057 23.3
2019-Nov-20 19:22 122 3 gusting 6 23.3
2019-Nov-20 19:20 122 3 gusting 6 23.3
2019-Nov-20 19:15 317 23.3
2019-Nov-20 19:08 073 23.3
2019-Nov-20 19:03 334 23.3
2019-Nov-20 18:59 018 2 gusting 6 23.3
2019-Nov-20 18:54 351 0 gusting 6 23.3
2019-Nov-20 18:49 042 23.3
2019-Nov-20 18:45 011 3 gusting 5 23.3
2019-Nov-20 18:39 337 1 gusting 7 23.3
2019-Nov-20 18:35 357 1 gusting 6 23.9
2019-Nov-20 18:27 057 5 gusting 6 23.3
2019-Nov-20 18:24 053 2 gusting 6 23.3
2019-Nov-20 18:19 343 23.3
2019-Nov-20 18:14 002 4 gusting 6 23.3
2019-Nov-20 18:09 007 2 gusting 6 23.3
2019-Nov-20 18:04 355 23.3
2019-Nov-20 18:00 011 0 gusting 5 23.3
2019-Nov-20 17:54 343 0 gusting 7 23.3
2019-Nov-20 17:47 285 1 gusting 6 23.3
2019-Nov-20 17:43 060 23.3
2019-Nov-20 17:37 187 0 gusting 6 23.3
2019-Nov-20 17:34 350 23.3
2019-Nov-20 17:30 336 2 gusting 8 23.3
2019-Nov-20 17:24 095 1 gusting 7 23.3
2019-Nov-20 17:19 305 0 gusting 6 23.3
2019-Nov-20 17:15 094 3 gusting 10 23.3
2019-Nov-20 17:09 338 5 gusting 6 23.3
2019-Nov-20 17:04 222 1 gusting 7 23.3
2019-Nov-20 16:57 305 1 gusting 7 23.3
2019-Nov-20 16:54 310 3 gusting 7 23.3
2019-Nov-20 16:48 312 3 gusting 8 23.3
2019-Nov-20 16:43 032 23.3
2019-Nov-20 16:39 081 3 gusting 6 23.3
2019-Nov-20 16:34 009 2 gusting 8 22.8
2019-Nov-20 16:29 358 0 gusting 7 22.8
2019-Nov-20 16:24 022 2 gusting 8 22.8
2019-Nov-20 16:20 012 22.8
2019-Nov-20 16:11 033 3 gusting 10 22.8
2019-Nov-20 16:08 059 3 gusting 10 22.8
2019-Nov-20 15:58 016 1 gusting 7 22.8
2019-Nov-20 15:54 344 5 gusting 7 22.8
2019-Nov-20 15:46 358 2 gusting 8 22.8
2019-Nov-20 15:44 009 0 gusting 8 22.8
2019-Nov-20 15:39 025 22.8
2019-Nov-20 15:33 322 6 gusting 10 22.8
2019-Nov-20 15:29 329 1 gusting 10 22.8
2019-Nov-20 15:24 037 6 gusting 8 22.8
2019-Nov-20 15:19 358 3 gusting 10 22.8
2019-Nov-20 15:14 309 4 gusting 6 22.8
2019-Nov-20 15:07 067 0 gusting 12 22.8
2019-Nov-20 15:03 087 5 gusting 9 22.8
2019-Nov-20 14:59 015 3 gusting 9 22.8
2019-Nov-20 14:52 338 1 gusting 10 22.2
2019-Nov-20 14:49 037 1 gusting 10 22.2
2019-Nov-20 14:43 050 3 gusting 9 22.8
2019-Nov-20 14:40 358 3 gusting 9 22.8
2019-Nov-20 14:34 032 4 gusting 10 22.8
2019-Nov-20 14:29 005 5 gusting 6 22.8
2019-Nov-20 14:24 358 1 gusting 11 22.8
2019-Nov-20 14:19 358 1 gusting 7 22.8
2019-Nov-20 14:14 049 7 gusting 7 22.8
2019-Nov-20 14:09 347 22.2
2019-Nov-20 14:04 302 2 gusting 8 22.2
2019-Nov-20 13:59 008 5 gusting 7 22.2
2019-Nov-20 13:52 035 22.2
2019-Nov-20 13:49 330 1 gusting 9 22.2
2019-Nov-20 13:44 347 5 gusting 9 22.2
2019-Nov-20 13:38 004 6 gusting 7 22.2
2019-Nov-20 13:34 340 1 gusting 7 22.2
2019-Nov-20 13:29 265 1 gusting 7 22.2
2019-Nov-20 13:24 358 2 gusting 7 22.8
2019-Nov-20 13:20 011 3 gusting 9 22.2
2019-Nov-20 13:14 344 3 gusting 7 22.2
2019-Nov-20 13:09 050 1 gusting 9 22.2
2019-Nov-20 13:04 060 3 gusting 8 21.7
2019-Nov-20 12:59 001 7 gusting 7 22.2
2019-Nov-20 12:54 357 4 gusting 6 21.7
2019-Nov-20 12:49 001 2 gusting 7 21.7
2019-Nov-20 12:44 061 5 gusting 8 21.1
2019-Nov-20 12:39 036 3 gusting 8 21.1
2019-Nov-20 12:35 340 1 gusting 6 21.1
2019-Nov-20 12:29 007 1 gusting 5 21.1
2019-Nov-20 12:24 341 1 gusting 6 21.1
2019-Nov-20 12:17 293 21.1
2019-Nov-20 12:14 279 20.6
2019-Nov-20 12:09 033 2 gusting 9 20.6
2019-Nov-20 12:04 303 4 gusting 5 21.1
2019-Nov-20 12:00 042 3 gusting 7 20.6
2019-Nov-20 11:53 049 3 gusting 5 20.6
2019-Nov-20 11:49 033 20.6
2019-Nov-20 11:44 054 20.6
2019-Nov-20 11:39 340 0 gusting 6 21.1
2019-Nov-20 11:33 015 2 gusting 4 21.1
2019-Nov-20 11:29 075 21.1
2019-Nov-20 11:23 358 20.6
2019-Nov-20 11:19 042 20.6
2019-Nov-20 11:14 015 0 gusting 7 21.1
2019-Nov-20 11:09 030 3 gusting 6 21.1
2019-Nov-20 11:03 011 2 gusting 7 21.1
2019-Nov-20 10:59 309 1 gusting 7 21.1
2019-Nov-20 10:53 358 2 gusting 9 21.1
2019-Nov-20 10:48 288 4 gusting 8 21.1
2019-Nov-20 10:44 298 1 gusting 8 21.1
2019-Nov-20 10:39 019 1 gusting 9 21.1
2019-Nov-20 10:34 008 2 gusting 7 21.1
2019-Nov-20 10:29 032 21.1
2019-Nov-20 10:23 001 7 gusting 8 21.1
2019-Nov-20 10:19 315 1 gusting 8 21.1
2019-Nov-20 10:13 039 21.1
2019-Nov-20 10:09 032 2 gusting 7 21.1
2019-Nov-20 10:03 005 2 gusting 9 21.1
2019-Nov-20 09:59 015 21.1
2019-Nov-20 09:50 300 1 gusting 6 21.1
2019-Nov-20 09:49 014 1 gusting 6 21.1
2019-Nov-20 09:43 352 2 gusting 6 21.1
2019-Nov-20 09:39 338 6 gusting 6 21.1
2019-Nov-20 09:33 087 0 gusting 6 21.1
2019-Nov-20 09:28 021 1 gusting 6 21.1
2019-Nov-20 09:23 354 21.1
2019-Nov-20 09:19 092 1 gusting 5 21.1
2019-Nov-20 09:13 350 1 gusting 7 21.1
2019-Nov-20 09:09 014 1 gusting 7 21.1
2019-Nov-20 09:02 007 21.1
2019-Nov-20 08:59 021 0 gusting 3 21.1
2019-Nov-20 08:53 007 21.1
2019-Nov-20 08:48 284 21.1
2019-Nov-20 08:42 001 0 gusting 7 21.7
2019-Nov-20 08:38 037 21.7
2019-Nov-20 08:33 032 21.7
2019-Nov-20 08:29 066 21.1
2019-Nov-20 08:23 039 21.7
2019-Nov-20 08:18 015 1 gusting 6 21.7
2019-Nov-20 08:12 354 1 gusting 6 21.7
2019-Nov-20 08:09 009 1 gusting 6 21.7
2019-Nov-20 08:04 004 21.7
2019-Nov-20 08:00 358 3 gusting 3 21.7
2019-Nov-20 07:54 001 1 gusting 6 21.7
2019-Nov-20 07:49 329 21.7
2019-Nov-20 07:44 358 21.7
2019-Nov-20 07:38 053 0 gusting 8 21.7
2019-Nov-20 07:34 009 5 gusting 8 21.7
2019-Nov-20 07:28 358 22.2
2019-Nov-20 07:24 057 1 gusting 6 22.2
2019-Nov-20 07:19 277 3 gusting 7 22.2
2019-Nov-20 07:14 334 1 gusting 11 22.2
2019-Nov-20 07:09 007 6 gusting 9 22.2
2019-Nov-20 07:04 015 5 gusting 7 22.2
2019-Nov-20 06:58 019 22.2
2019-Nov-20 06:54 014 22.2
2019-Nov-20 06:49 030 1 gusting 7 22.2
2019-Nov-20 06:41 018 3 gusting 7 22.2
2019-Nov-20 06:38 095 22.2
2019-Nov-20 06:33 334 22.2
2019-Nov-20 06:28 333 0 gusting 5 22.2
2019-Nov-20 06:24 350 2 gusting 5 22.2
2019-Nov-20 06:18 331 5 gusting 5 22.2
2019-Nov-20 06:14 050 22.2
2019-Nov-20 06:09 278 3 gusting 7 22.2
2019-Nov-20 06:04 019 2 gusting 4 22.2
2019-Nov-20 05:59 039 0 gusting 6 22.8
2019-Nov-20 05:54 004 1 gusting 6 22.8
2019-Nov-20 05:49 066 22.8
2019-Nov-20 05:44 028 2 gusting 5 22.8
2019-Nov-20 05:39 037 22.8
2019-Nov-20 05:34 336 22.8
2019-Nov-20 05:29 358 0 gusting 6 22.8
2019-Nov-20 05:24 011 22.8
2019-Nov-20 05:18 337 22.8
2019-Nov-20 05:14 323 0 gusting 2 22.8
2019-Nov-20 05:09 337 22.8
2019-Nov-20 05:03 337 23.3
2019-Nov-20 04:59 305 3 gusting 4 22.8
2019-Nov-20 04:54 319 23.3
2019-Nov-20 04:49 270 23.3
2019-Nov-20 04:44 334 22.8
2019-Nov-20 04:39 334 22.8
2019-Nov-20 04:34 343 0 gusting 6 22.8
2019-Nov-20 04:28 303 23.3
2019-Nov-20 04:23 358 4 gusting 4 23.3
2019-Nov-20 04:19 310 23.3
2019-Nov-20 04:14 035 23.3
2019-Nov-20 04:08 348 1 gusting 7 23.3
2019-Nov-20 04:04 347 4 gusting 7 23.3
2019-Nov-20 03:57 348 2 gusting 7 23.3
2019-Nov-20 03:53 313 23.3
2019-Nov-20 03:49 007 23.3
2019-Nov-20 03:44 007 2 gusting 9 23.3
2019-Nov-20 03:39 036 1 gusting 6 23.3
2019-Nov-20 03:33 021 23.3
2019-Nov-20 03:29 029 23.3
2019-Nov-20 03:24 282 23.3
2019-Nov-20 03:19 358 3 gusting 6 23.3
2019-Nov-20 03:12 001 23.3
2019-Nov-20 03:09 302 6 gusting 8 23.3
2019-Nov-20 03:04 084 23.3
2019-Nov-20 02:57 358 1 gusting 7 23.3
2019-Nov-20 02:50 043 23.3
2019-Nov-20 02:49 354 4 gusting 8 23.3
2019-Nov-20 02:43 004 4 gusting 5 23.9
2019-Nov-20 02:39 082 23.9
2019-Nov-20 02:34 326 3 gusting 6 23.9
2019-Nov-20 02:29 312 0 gusting 4 23.9
2019-Nov-20 02:23 312 2 gusting 7 23.9
2019-Nov-20 02:16 352 23.9
2019-Nov-20 02:14 355 1 gusting 6 23.9
2019-Nov-20 02:09 002 2 gusting 6 23.9
2019-Nov-20 02:04 331 23.9
2019-Nov-20 01:59 265 1 gusting 5 23.9
2019-Nov-20 01:54 323 2 gusting 6 23.9
2019-Nov-20 01:47 084 3 gusting 11 23.9
2019-Nov-20 01:44 305 2 gusting 11 23.9
2019-Nov-20 01:38 358 0 gusting 7 23.9
2019-Nov-20 01:34 345 2 gusting 7 23.9
2019-Nov-20 01:28 338 1 gusting 7 23.9
2019-Nov-20 01:23 337 24.4
2019-Nov-20 01:19 021 0 gusting 8 23.9
2019-Nov-20 01:14 326 0 gusting 6 23.9
2019-Nov-20 01:08 350 23.9
2019-Nov-20 01:04 306 23.9
2019-Nov-20 00:58 317 3 gusting 6 23.9
2019-Nov-20 00:54 347 23.9
2019-Nov-20 00:49 312 2 gusting 8 23.9
2019-Nov-20 00:44 267 2 gusting 7 24.4
2019-Nov-20 00:38 322 2 gusting 6 23.9
2019-Nov-20 00:34 008 24.4
2019-Nov-20 00:28 291 24.4
2019-Nov-20 00:23 319 24.4
2019-Nov-20 00:18 319 23.9
2019-Nov-20 00:14 319 24.4
2019-Nov-20 00:09 319 24.4
2019-Nov-20 00:04 309 4 gusting 7 24.4
2019-Nov-19 23:59 265 1 gusting 6 24.4
2019-Nov-19 23:53 295 2 gusting 7 24.4
2019-Nov-19 23:49 247 2 gusting 7 24.4
2019-Nov-19 23:43 319 6 gusting 6 24.4
2019-Nov-19 23:39 305 0 gusting 6 24.4
2019-Nov-19 23:34 317 24.4
2019-Nov-19 23:29 299 1 gusting 8 24.4
2019-Nov-19 23:24 289 4 gusting 7 24.4
2019-Nov-19 23:19 340 1 gusting 7 24.4
2019-Nov-19 23:14 302 1 gusting 7 24.4
2019-Nov-19 23:09 285 3 gusting 7 24.4
2019-Nov-19 23:04 309 3 gusting 7 24.4
2019-Nov-19 22:59 281 4 gusting 7 24.4
2019-Nov-19 22:54 282 25.0
2019-Nov-19 22:49 357 1 gusting 6 25.0
2019-Nov-19 22:44 320 25.0
2019-Nov-19 22:39 336 2 gusting 9 25.0
2019-Nov-19 22:34 312 4 gusting 7 25.0
2019-Nov-19 22:28 320 3 gusting 9 25.0
2019-Nov-19 22:24 291 3 gusting 9 25.0
2019-Nov-19 22:16 300 4 gusting 8 25.0
2019-Nov-19 22:14 313 6 gusting 8 25.0
2019-Nov-19 22:10 286 1 gusting 7 25.6
2019-Nov-19 22:04 322 5 gusting 6 25.0
2019-Nov-19 21:59 278 3 gusting 9 25.0
2019-Nov-19 21:54 267 0 gusting 9 25.0
2019-Nov-19 21:48 336 2 gusting 9 25.0
2019-Nov-19 21:44 272 1 gusting 9 25.6
2019-Nov-19 21:38 324 6 gusting 10 25.6
2019-Nov-19 21:34 293 3 gusting 10 25.6
2019-Nov-19 21:29 289 3 gusting 11 25.6
2019-Nov-19 21:24 291 2 gusting 9 25.6
2019-Nov-19 21:19 296 7 gusting 8 25.6
2019-Nov-19 21:14 299 6 gusting 9 25.6
2019-Nov-19 21:09 322 5 gusting 7 25.6
2019-Nov-19 21:04 271 25.6
2019-Nov-19 20:56 358 3 gusting 9 25.6
2019-Nov-19 20:54 307 3 gusting 9 25.6
2019-Nov-19 20:49 337 2 gusting 7 25.6
2019-Nov-19 20:43 323 6 gusting 8 25.6
2019-Nov-19 20:38 305 7 gusting 8 25.6
2019-Nov-19 20:33 295 2 gusting 7 25.6
2019-Nov-19 20:29 293 6 gusting 7 25.6
2019-Nov-19 20:24 267 0 gusting 9 25.6
2019-Nov-19 20:18 289 3 gusting 7 25.6
2019-Nov-19 20:14 306 2 gusting 7 25.6
2019-Nov-19 20:08 309 6 gusting 11 25.6
2019-Nov-19 20:03 296 6 gusting 9 25.6
2019-Nov-19 19:58 310 4 gusting 12 25.6
2019-Nov-19 19:54 303 6 gusting 12 25.6
2019-Nov-19 19:49 310 4 gusting 9 25.6
2019-Nov-19 19:44 302 25.6
2019-Nov-19 19:39 302 25.6
2019-Nov-19 19:34 302 25.6
2019-Nov-19 19:27 302 25.6
2019-Nov-19 19:23 302 26.1
2019-Nov-19 19:19 239 26.1
2019-Nov-19 19:12 239 26.1
2019-Nov-19 19:07 239 2 26.1
2019-Nov-19 19:04 295 26.1
2019-Nov-19 18:59 295 26.1
2019-Nov-19 18:54 312 0 gusting 6 26.1
2019-Nov-19 18:48 327 26.1
2019-Nov-19 18:41 261 4 gusting 7 26.1
2019-Nov-19 18:39 300 1 gusting 7 26.1
2019-Nov-19 18:34 258 26.1
2019-Nov-19 18:25 261 2 gusting 6 26.1
2019-Nov-19 18:24 340 3 gusting 6 26.1
2019-Nov-19 18:18 338 0 gusting 7 26.1
2019-Nov-19 18:11 299 6 gusting 10 26.1
2019-Nov-19 18:06 292 8 gusting 6 26.1
2019-Nov-19 18:01 253 26.1
2019-Nov-19 18:00 253 26.1
2019-Nov-19 17:54 313 6 gusting 6 26.1
2019-Nov-19 17:49 326 26.1
2019-Nov-19 17:44 327 26.7
2019-Nov-19 17:38 351 26.1
2019-Nov-19 17:34 262 26.1
2019-Nov-19 17:29 306 1 gusting 9 26.1
2019-Nov-19 17:24 354 2 gusting 6 26.1
2019-Nov-19 17:19 326 4 gusting 7 26.7
2019-Nov-19 17:13 322 26.1
2019-Nov-19 17:09 172 26.1
2019-Nov-19 17:02 307 2 gusting 6 26.1
2019-Nov-19 16:59 302 26.1
2019-Nov-19 16:54 333 26.1
2019-Nov-19 16:48 282 26.1
2019-Nov-19 16:42 264 1 gusting 6 26.1
2019-Nov-19 16:38 310 3 gusting 6 26.1
2019-Nov-19 16:32 268 26.1
2019-Nov-19 16:26 268 26.1
2019-Nov-19 16:24 268 25.6
2019-Nov-19 16:19 333 0 gusting 6 25.6
2019-Nov-19 16:14 305 0 gusting 6 25.6
2019-Nov-19 16:08 007 25.6
2019-Nov-19 16:04 323 2 gusting 6 25.6
2019-Nov-19 15:59 303 25.6
2019-Nov-19 15:54 288 25.6
2019-Nov-19 15:49 298 25.6
2019-Nov-19 15:42 298 25.6
2019-Nov-19 15:39 298 25.0
2019-Nov-19 15:34 323 1 gusting 5 25.0
2019-Nov-19 15:29 317 0 gusting 5 25.0
2019-Nov-19 15:23 306 25.0
2019-Nov-19 15:17 028 25.0
2019-Nov-19 15:14 243 25.0
2019-Nov-19 15:09 340 0 gusting 5 25.0
2019-Nov-19 15:04 307 25.0
2019-Nov-19 14:58 307 25.0
2019-Nov-19 14:54 307 25.0
2019-Nov-19 14:49 344 25.0
2019-Nov-19 14:43 277 0 gusting 6 25.0
2019-Nov-19 14:39 246 1 gusting 6 25.0
2019-Nov-19 14:34 268 25.0
2019-Nov-19 14:29 268 24.4
2019-Nov-19 14:24 268 24.4
2019-Nov-19 14:18 268 24.4
2019-Nov-19 14:14 268 24.4
2019-Nov-19 14:09 268 24.4
2019-Nov-19 14:03 268 24.4
2019-Nov-19 13:59 268 24.4
2019-Nov-19 13:53 282 24.4
2019-Nov-19 13:48 270 24.4
2019-Nov-19 13:42 274 1 gusting 6 24.4
2019-Nov-19 13:39 310 1 gusting 6 24.4
2019-Nov-19 13:34 323 24.4
2019-Nov-19 13:29 009 0 gusting 5 24.4
2019-Nov-19 13:24 329 0 gusting 5 24.4
2019-Nov-19 13:18 302 23.9
2019-Nov-19 13:14 302 23.9
2019-Nov-19 13:06 302 23.3
2019-Nov-19 13:04 302 23.3
2019-Nov-19 13:00 302 23.3
2019-Nov-19 12:54 302 22.8
2019-Nov-19 12:49 302 22.8
2019-Nov-19 12:41 302 22.8
2019-Nov-19 12:39 302 22.8
2019-Nov-19 12:34 302 22.8
2019-Nov-19 12:29 302 22.8
2019-Nov-19 12:24 302 22.8
2019-Nov-19 12:19 302 22.8
2019-Nov-19 12:11 302 22.2
2019-Nov-19 12:08 302 22.2
2019-Nov-19 12:03 302 22.2
2019-Nov-19 11:59 302 22.2
2019-Nov-19 11:51 302 22.2
2019-Nov-19 11:49 302 22.2
2019-Nov-19 11:41 302 22.2
2019-Nov-19 11:39 302 22.2
2019-Nov-19 11:33 302 22.2
2019-Nov-19 11:29 302 22.2
2019-Nov-19 11:22 302 22.2
2019-Nov-19 11:19 302 22.2
2019-Nov-19 11:14 302 22.2
2019-Nov-19 11:07 302 22.2
2019-Nov-19 11:02 302 22.2
2019-Nov-19 10:56 302 22.2
2019-Nov-19 10:54 302 22.2
2019-Nov-19 10:49 302 22.2
2019-Nov-19 10:44 302 22.2
2019-Nov-19 10:38 302 22.2
2019-Nov-19 10:33 302 22.2
2019-Nov-19 10:29 302 22.2
2019-Nov-19 10:24 302 22.2
2019-Nov-19 10:19 302 22.2
2019-Nov-19 10:14 302 22.2
2019-Nov-19 10:08 302 22.2
2019-Nov-19 10:03 302 22.2
2019-Nov-19 09:57 302 22.2
2019-Nov-19 09:54 302 22.2
2019-Nov-19 09:49 302 22.2
2019-Nov-19 09:44 302 22.2
2019-Nov-19 09:39 254 0 gusting 4 22.2
2019-Nov-19 09:33 286 2 gusting 6 22.2
2019-Nov-19 09:29 268 0 gusting 6 22.2
2019-Nov-19 09:24 291 22.2
2019-Nov-19 09:17 205 22.2
2019-Nov-19 09:14 205 22.2
2019-Nov-19 09:09 205 22.2
2019-Nov-19 09:04 205 22.2
2019-Nov-19 08:59 205 22.2
2019-Nov-19 08:54 205 22.2
2019-Nov-19 08:49 205 22.2
2019-Nov-19 08:44 205 22.2
2019-Nov-19 08:38 205 22.2
2019-Nov-19 08:33 205 22.2
2019-Nov-19 08:29 205 22.2
2019-Nov-19 08:24 205 22.2
2019-Nov-19 08:19 205 22.2
2019-Nov-19 08:13 205 22.2
2019-Nov-19 08:09 205 22.2
2019-Nov-19 08:04 239 0 gusting 4 22.2
2019-Nov-19 07:59 250 1 gusting 4 22.2
2019-Nov-19 07:54 299 22.2
2019-Nov-19 07:49 246 2 gusting 3 22.2
2019-Nov-19 07:44 264 2 gusting 4 22.2
2019-Nov-19 07:39 180 22.2
2019-Nov-19 07:34 198 22.2
2019-Nov-19 07:29 198 22.2
2019-Nov-19 07:23 198 22.2
2019-Nov-19 07:19 198 22.2
2019-Nov-19 07:14 198 22.2
2019-Nov-19 07:09 253 22.2
2019-Nov-19 07:04 253 0 gusting 4 22.2
2019-Nov-19 06:59 254 22.2
2019-Nov-19 06:54 223 22.2
2019-Nov-19 06:49 261 22.2
2019-Nov-19 06:43 233 1 22.2
2019-Nov-19 06:39 270 22.2
2019-Nov-19 06:34 270 22.2
2019-Nov-19 06:28 270 22.2
2019-Nov-19 06:24 270 22.2
2019-Nov-19 06:19 270 22.2
2019-Nov-19 06:13 216 22.2
2019-Nov-19 06:09 216 22.2
2019-Nov-19 06:04 216 22.2
2019-Nov-19 05:59 247 2 gusting 4 22.2
2019-Nov-19 05:54 279 22.2
2019-Nov-19 05:48 262 0 gusting 6 22.2
2019-Nov-19 05:43 244 22.2
2019-Nov-19 05:39 175 22.2
2019-Nov-19 05:34 239 22.2
2019-Nov-19 05:29 239 22.2
2019-Nov-19 05:24 239 22.2
2019-Nov-19 05:19 239 22.2
2019-Nov-19 05:13 239 22.2
2019-Nov-19 05:05 337 22.2
2019-Nov-19 05:04 337 22.2